Mountain Home, AR

6:26 PM CDT on May 24, 2018 (GMT -0500)
Baxter County Regional

Weather History for KBPK - February, 2012

Change the Weather History Date:

Monday, February 13, 2012

  Actual Average (KFLP) Record (KFLP)
Temperature  
Mean Temperature 29 °F -  
Max Temperature 32 °F 50 °F 71 °F (2005)
Min Temperature 26 °F 31 °F 15 °F (2004)
Degree Days  
Heating Degree Days 36    
Moisture  
Dew Point 27 °F    
Average Humidity 93    
Maximum Humidity 100    
Minimum Humidity 38    
Precipitation  
Precipitation 0.32 in - - ()
Sea Level Pressure  
Sea Level Pressure 30.01 in    
Wind  
Wind Speed 8 mph (SE)    
Max Wind Speed 14 mph    
Max Gust Speed 22 mph    
Visibility 4 miles    
Events Fog , Rain , Snow    
Averages and records for this station are not official NWS values.
T = Trace of Precipitation, MM = Missing Value Source: NWS Daily Summary

Daily Weather History Graph

Daily Weather History Graph

Search for Another Location

Airport or City:

Astronomy

Feb. 13, 2012 Rise Set
Actual Time 7:00 AM CST 5:48 PM CST
Civil Twilight 6:33 AM CST 6:14 PM CST
Nautical Twilight 6:03 AM CST 6:45 PM CST
Astronomical Twilight 5:33 AM CST 7:15 PM CST
Moon No Moon Rise 10:12 AM CST (2/13)
Length of Visible Light 11h 40m
Length of Day
10h 47m
Waning Gibbous, 61% of the Moon is Illuminated
Feb 13
Waning Gibbous
Feb 14
Last Quarter
Feb 21
New
Feb 29
First Quarter
Mar 8
Full

Hourly Weather History & Observations

Time (CST) Temp. Windchill Dew Point Humidity Pressure Visibility Wind Dir Wind Speed Gust Speed Precip Events Conditions
12:53 AM 32.0 °F 25.6 °F 10.0 °F 40% 30.26 in 10.0 mi SSE 6.9 mph - N/A   Overcast
1:53 AM 32.0 °F 25.6 °F 9.0 °F 38% 30.24 in 10.0 mi SSE 6.9 mph - N/A   Overcast
2:53 AM 32.0 °F 22.1 °F 9.0 °F 38% 30.22 in 10.0 mi South 13.8 mph 20.7 mph N/A   Overcast
3:07 AM 28.4 °F 17.5 °F 21.2 °F 74% 30.20 in 1.8 mi South 13.8 mph 21.9 mph 0.00 in Snow Light Snow
3:20 AM 26.6 °F 17.5 °F 24.8 °F 93% 30.19 in 1.0 mi South 9.2 mph - 0.01 in Snow Light Snow
3:32 AM 26.6 °F 17.5 °F 24.8 °F 93% 30.19 in 1.0 mi South 9.2 mph 19.6 mph 0.01 in Snow Light Snow
3:53 AM 26.1 °F 18.4 °F 25.0 °F 96% 30.20 in 1.0 mi SSE 6.9 mph - 0.02 in Snow Light Snow
4:01 AM 26.6 °F 18.2 °F 24.8 °F 93% 30.18 in 0.8 mi SSE 8.1 mph - 0.01 in Snow Light Snow
4:18 AM 26.6 °F 19.1 °F 24.8 °F 93% 30.18 in 1.2 mi SSE 6.9 mph - 0.02 in Snow Light Snow
4:33 AM 26.6 °F 22.6 °F 24.8 °F 93% 30.18 in 2.0 mi SE 3.5 mph - 0.02 in Snow Light Snow
4:37 AM 26.6 °F 21.2 °F 24.8 °F 93% 30.18 in 3.0 mi SE 4.6 mph - 0.02 in Snow Light Snow
4:53 AM 26.1 °F 19.4 °F 25.0 °F 96% 30.20 in 10.0 mi SE 5.8 mph - 0.02 in   Overcast
5:53 AM 26.1 °F 19.4 °F 24.1 °F 92% 30.19 in 9.0 mi SE 5.8 mph - N/A   Overcast
6:53 AM 27.0 °F 18.7 °F 24.1 °F 89% 30.17 in 8.0 mi ESE 8.1 mph - 0.00 in Snow Light Snow
7:53 AM 27.0 °F 18.7 °F 23.0 °F 85% 30.16 in 6.0 mi SE 8.1 mph - 0.00 in Snow Light Snow
8:29 AM 28.4 °F 19.7 °F 23.0 °F 80% 30.11 in 2.5 mi ESE 9.2 mph - 0.00 in Snow Light Snow
8:48 AM 26.6 °F 17.5 °F 23.0 °F 86% 30.11 in 1.2 mi ESE 9.2 mph - 0.00 in Snow Light Snow
8:53 AM 27.0 °F 18.0 °F 23.0 °F 85% 30.13 in 1.2 mi SE 9.2 mph 17.3 mph 0.00 in Snow Light Snow
9:03 AM 26.6 °F 16.8 °F 23.0 °F 86% 30.11 in 0.8 mi SE 10.4 mph - 0.00 in Snow Light Snow
9:26 AM 26.6 °F 17.5 °F 24.8 °F 93% 30.10 in 0.5 mi SE 9.2 mph - 0.01 in Fog , Snow Snow
9:30 AM 26.6 °F 19.1 °F 24.8 °F 93% 30.10 in 0.8 mi SE 6.9 mph - 0.01 in Snow Light Snow
9:38 AM 26.6 °F 17.5 °F 24.8 °F 93% 30.10 in 1.2 mi SE 9.2 mph - 0.01 in Snow Light Snow
9:53 AM 27.0 °F 18.0 °F 24.1 °F 89% 30.12 in 1.2 mi SE 9.2 mph - 0.02 in Snow Light Snow
10:17 AM 26.6 °F 18.2 °F 24.8 °F 93% 30.09 in 0.8 mi SE 8.1 mph - 0.02 in Snow Light Snow
10:27 AM 26.6 °F 19.1 °F 24.8 °F 93% 30.08 in 0.5 mi SE 6.9 mph - 0.02 in Fog , Snow Snow
10:53 AM 27.0 °F 19.5 °F 26.1 °F 96% 30.10 in 0.5 mi SE 6.9 mph - 0.05 in Fog , Snow Snow
11:10 AM 26.6 °F 17.5 °F 26.6 °F 100% 30.06 in 0.5 mi SE 9.2 mph - 0.02 in Fog , Snow Snow
11:36 AM 28.4 °F 20.4 °F 26.6 °F 93% 30.04 in 0.2 mi ESE 8.1 mph - 0.05 in Fog , Snow Heavy Snow
11:53 AM 28.0 °F 19.3 °F 26.1 °F 92% 30.05 in 0.8 mi SE 9.2 mph - 0.06 in Snow Light Snow
12:02 PM 28.4 °F 20.4 °F 26.6 °F 93% 30.02 in 1.8 mi SE 8.1 mph - 0.00 in Snow Light Snow
12:15 PM 28.4 °F 20.4 °F 26.6 °F 93% 30.00 in 1.5 mi SE 8.1 mph - 0.01 in Snow Light Snow
12:32 PM 28.4 °F 19.7 °F 26.6 °F 93% 29.99 in 0.8 mi SE 9.2 mph - 0.01 in Snow Light Snow
12:39 PM 28.4 °F 19.7 °F 26.6 °F 93% 29.98 in 1.2 mi SE 9.2 mph - 0.02 in Snow Light Snow
12:53 PM 28.9 °F 19.8 °F 27.0 °F 92% 29.99 in 2.5 mi SE 10.4 mph - 0.02 in Snow Light Snow
1:10 PM 28.4 °F 19.7 °F 28.4 °F 100% 29.97 in 3.0 mi SE 9.2 mph - 0.01 in Rain Light Freezing Rain
1:13 PM 28.4 °F 20.4 °F 28.4 °F 100% 29.96 in 3.0 mi SE 8.1 mph - 0.01 in Snow Light Snow
1:34 PM 30.2 °F 21.9 °F 28.4 °F 93% 29.93 in 5.0 mi SE 9.2 mph - 0.03 in Rain Light Freezing Rain
1:41 PM 30.2 °F 21.9 °F 28.4 °F 93% 29.93 in 4.0 mi SE 9.2 mph - 0.04 in Rain Light Freezing Rain
1:53 PM 30.0 °F 21.7 °F 28.9 °F 96% 29.95 in 4.0 mi SE 9.2 mph - 0.05 in Rain Light Freezing Rain
2:00 PM 30.2 °F 23.4 °F 28.4 °F 93% 29.93 in 3.0 mi SE 6.9 mph - 0.01 in Rain Light Freezing Rain
2:34 PM 30.2 °F 22.6 °F 30.2 °F 100% 29.92 in 3.0 mi SE 8.1 mph - 0.04 in Rain Light Freezing Rain
2:43 PM 30.2 °F 23.4 °F 30.2 °F 100% 29.92 in 3.0 mi SE 6.9 mph - 0.05 in Rain Light Freezing Rain
2:48 PM 30.2 °F 23.4 °F 30.2 °F 100% 29.92 in 2.5 mi SSE 6.9 mph - 0.06 in Rain Light Freezing Rain
2:53 PM 30.9 °F 23.5 °F 30.0 °F 96% 29.94 in 3.0 mi SSE 8.1 mph - 0.06 in Rain Light Freezing Rain
3:00 PM 30.2 °F 22.6 °F 30.2 °F 100% 29.92 in 4.0 mi SSE 8.1 mph - 0.01 in Rain Light Freezing Rain
3:09 PM 30.2 °F 23.4 °F 30.2 °F 100% 29.92 in 6.0 mi SSE 6.9 mph - 0.01 in Rain Light Freezing Rain
3:18 PM 30.2 °F 22.6 °F 30.2 °F 100% 29.91 in 8.0 mi SSE 8.1 mph - 0.01 in Rain Light Freezing Rain
3:53 PM 32.0 °F 23.0 °F 30.0 °F 92% 29.91 in 8.0 mi SSE 11.5 mph 16.1 mph 0.01 in Rain Light Freezing Rain
4:07 PM 32.0 °F 26.4 °F 30.2 °F 93% 29.89 in 8.0 mi SSE 5.8 mph - 0.00 in Rain Light Freezing Rain
4:20 PM 32.0 °F 25.6 °F 30.2 °F 93% 29.89 in 4.0 mi SSE 6.9 mph - 0.00 in   Overcast
4:25 PM 30.2 °F 24.3 °F 30.2 °F 100% 29.89 in 2.5 mi SSE 5.8 mph - 0.00 in Rain Light Freezing Rain
4:32 PM 30.2 °F 21.9 °F 30.2 °F 100% 29.89 in 2.5 mi SSE 9.2 mph - 0.00 in Rain Light Freezing Rain
4:36 PM 30.2 °F 22.6 °F 30.2 °F 100% 29.89 in 2.5 mi SSE 8.1 mph - 0.01 in Rain Light Freezing Rain
4:43 PM 30.2 °F 22.6 °F 30.2 °F 100% 29.88 in 4.0 mi SSE 8.1 mph - 0.01 in Rain Light Freezing Rain
4:53 PM 30.9 °F 25.2 °F 30.9 °F 100% 29.90 in 6.0 mi SSE 5.8 mph - 0.01 in Rain Light Freezing Rain
5:00 PM 30.2 °F 21.9 °F 30.2 °F 100% 29.87 in 5.0 mi SSE 9.2 mph - 0.00 in   Overcast
5:41 PM 30.2 °F 24.3 °F 30.2 °F 100% 29.86 in 4.0 mi SSE 5.8 mph - 0.00 in   Overcast
5:53 PM 30.9 °F 24.3 °F 30.0 °F 96% 29.89 in 4.0 mi SE 6.9 mph - 0.00 in   Overcast
6:30 PM 30.2 °F 22.6 °F 30.2 °F 100% 29.88 in 4.0 mi SSE 8.1 mph - 0.00 in Rain Light Freezing Rain
6:53 PM 30.9 °F 24.3 °F 30.9 °F 100% 29.90 in 4.0 mi SSE 6.9 mph - 0.00 in Rain Light Freezing Rain
7:08 PM 30.2 °F 21.3 °F 30.2 °F 100% 29.88 in 5.0 mi SSE 10.4 mph - 0.00 in Rain Light Freezing Rain
7:27 PM 30.2 °F 22.6 °F 30.2 °F 100% 29.88 in 7.0 mi SSE 8.1 mph - 0.00 in   Overcast
7:53 PM 30.9 °F 23.5 °F 30.0 °F 96% 29.90 in 8.0 mi SSE 8.1 mph - 0.00 in   Overcast
8:53 PM 30.9 °F 25.2 °F 30.0 °F 96% 29.91 in 7.0 mi SSE 5.8 mph - N/A   Overcast
9:09 PM 30.2 °F 24.3 °F 30.2 °F 100% 29.88 in 4.0 mi South 5.8 mph - 0.00 in   Overcast
9:26 PM 30.2 °F 23.4 °F 30.2 °F 100% 29.88 in 3.0 mi South 6.9 mph - 0.00 in Rain Light Freezing Rain
9:53 PM 30.9 °F 25.2 °F 30.9 °F 100% 29.90 in 3.0 mi South 5.8 mph - 0.00 in Rain Light Freezing Rain
10:15 PM 30.2 °F 23.4 °F 30.2 °F 100% 29.88 in 3.0 mi South 6.9 mph - 0.00 in   Overcast
10:53 PM 30.9 °F 23.5 °F 30.9 °F 100% 29.89 in 2.5 mi South 8.1 mph - 0.00 in Snow Light Snow
11:18 PM 30.2 °F 22.6 °F 30.2 °F 100% 29.86 in 3.0 mi South 8.1 mph - 0.00 in Snow Light Snow
11:53 PM 30.9 °F 24.3 °F 30.9 °F 100% 29.88 in 4.0 mi South 6.9 mph - 0.00 in   Overcast